Date,TemperatureHighF,TemperatureAvgF,TemperatureLowF,DewpointHighF,DewpointAvgF,DewpointLowF,HumidityHigh,HumidityAvg,HumidityLow,PressureMaxIn,PressureMinIn,WindSpeedMaxMPH,WindSpeedAvgMPH,GustSpeedMaxMPH,PrecipitationSumIn
2013-12-1,19.9,17.4,14.8,6.2,0.9,-0.8,67,48,42,30.50,30.20,0,0,0,0.00
2013-12-2,18.3,16.4,12.2,11.1,9.2,6.1,76,73,68,30.64,30.50,0,0,0,0.00
2013-12-3,17.7,16.9,15.2,12.4,11.3,10.8,87,78,74,30.63,30.53,0,0,0,0.00
2013-12-4,30.5,23.2,15.8,26.2,19.0,12.5,87,84,80,30.54,30.36,0,0,0,0.00
2013-12-5,35.5,35.3,34.8,34.4,34.0,33.5,96,95,95,30.55,30.54,0,0,0,0.00
2013-12-6,36.1,35.7,35.1,35.1,34.7,31.9,96,96,95,30.56,30.46,0,0,0,0.00
2013-12-7,33.2,31.0,29.9,32.2,30.0,28.9,96,96,96,30.49,30.39,0,0,0,0.01
2013-12-8,30.6,29.8,29.3,29.6,28.8,28.3,96,96,96,30.38,30.37,0,0,0,0.01
2013-12-9,32.4,29.2,27.6,30.9,27.9,26.1,96,95,94,30.37,30.16,0,0,0,0.00
2013-12-10,33.8,31.0,29.6,32.3,28.9,26.9,96,92,87,30.17,29.66,0,0,0,0.00
2013-12-11,32.9,26.6,20.7,27.1,17.1,4.5,89,68,47,29.66,29.35,0,0,0,0.00
2013-12-12,20.9,17.4,14.0,8.7,3.9,1.3,77,56,45,29.46,29.31,0,0,0,0.00
2013-12-13,25.0,17.5,14.2,17.9,13.0,8.7,90,83,63,29.47,28.80,0,0,0,0.00
2013-12-14,22.4,19.4,18.7,16.0,15.3,11.9,89,84,64,29.02,28.80,0,0,0,0.00
2013-12-15,22.4,21.2,15.9,13.7,12.0,5.9,77,67,61,29.81,29.02,0,0,0,0.00
2013-12-16,18.1,12.5,8.2,6.3,3.4,1.3,76,66,55,29.97,29.81,0,0,0,0.00
2013-12-17,18.4,10.8,7.3,1.8,-0.4,-1.5,68,60,46,30.28,29.96,0,0,0,0.00
2013-12-18,7.3,7.3,7.3,-1.1,-1.1,-1.1,68,68,68,30.28,30.28,0,0,0,0.00
2013-12-19,17.1,15.1,13.9,14.4,12.4,11.2,90,89,88,29.62,29.59,0,0,0,0.00
2013-12-20,32.1,28.8,19.7,30.8,27.1,16.1,95,93,87,29.68,29.64,0,0,0,0.00
2013-12-21,38.0,33.4,31.7,34.2,31.8,30.2,96,94,85,29.67,29.39,0,0,0,0.12
2013-12-22,39.4,36.1,34.6,34.0,30.7,28.3,92,81,71,29.39,29.28,0,0,0,0.28
2013-12-23,28.7,23.2,14.4,9.9,5.7,2.8,60,47,38,30.07,29.67,0,0,0,0.00
2013-12-24,15.2,8.3,2.6,7.1,1.3,-2.0,88,73,58,30.10,29.61,0,0,0,0.00
2013-12-25,13.6,9.9,8.2,6.5,3.5,2.1,78,75,72,29.63,29.60,0,0,0,0.00
2013-12-26,17.2,15.3,13.5,9.2,7.5,5.0,74,71,63,29.68,29.59,0,0,0,0.00
2013-12-27,34.4,17.7,8.2,30.2,10.7,1.6,92,74,64,29.88,29.68,0,0,0,0.00
2013-12-28,37.9,32.8,27.6,31.3,29.2,23.8,91,87,77,29.85,29.81,0,0,0,0.02
2013-12-29,28.8,25.4,21.4,26.2,22.4,18.7,92,88,83,29.84,29.60,0,0,0,0.00
2013-12-30,37.1,30.2,25.5,30.3,26.6,22.9,93,86,75,29.60,29.42,0,0,0,0.00
2013-12-31,31.9,30.1,27.0,30.4,28.0,24.5,94,92,90,29.62,29.58,0,0,0,0.00